Terminal Aerodrome Forecast
Issued by NWS Billings, MT

Home | Current Version | Previous Version | Text Only | Print | Product List | Glossary On
Versions: 1 2 3 4 5 6 7 8 9 10 11 12 13 14 15 16
000
FTUS45 KBYZ 061502 AAC
TAFBIL
TAF AMD
KBIL 061502Z 0615/0712 02011KT P6SM FEW030 BKN070
      TEMPO 0615/0617 5SM FU
     FM061900 02010G18KT P6SM VCSH SCT030 BKN040=

USA.gov is the U.S. government's official web portal to all federal, state and local government web resources and services.